This demonstration page uses our WeatherBlox Daily Observations layout. Learn more.

Left ArrowRight Arrow

36.17497, -115.13722

Hourly Observations for January 14, 2019

Temp ( °F °C ) Dew Point ( °F °C ) Humidity (%) Winds ( mph kmh ) Pressure ( in mb ) Visibility ( mi km ) Precip ( " mm )
12:53 am 00:53 Cloudy 44 6.7 26 -3.3 49 49 Calm 30.22 1023 10 16.0934 0 0
1:53 am 01:53 Mostly Cloudy 43 6.1 27 -2.8 53 53 Calm 30.22 1023 10 16.0934 0 0
2:53 am 02:53 Mostly Cloudy 43 6.1 27 -2.8 53 53 WSW 3 6 30.22 1024 10 16.0934 0 0
3:53 am 03:53 Cloudy 43 6.1 27 -2.8 53 53 SW 3 6 30.21 1023 10 16.0934 0 0
4:53 am 04:53 Mostly Clear 44 6.7 26 -3.3 49 49 SW 6 9 30.21 1023 10 16.0934 0 0
5:53 am 05:53 Mostly Cloudy 43 6.1 26 -3.3 51 51 SW 6 9 30.23 1024 10 16.0934 0 0
6:53 am 06:53 Sunny 43 6.1 26 -3.3 51 51 SW 5 7 30.23 1024 10 16.0934 0 0
7:53 am 07:53 Sunny 46 7.8 27 -2.8 47 47 S 10 17 30.24 1024 10 16.0934 0 0
8:53 am 08:53 Cloudy 47 8.3 26 -3.3 44 44 SSW 6 9 30.26 1025 10 16.0934 0 0
9:53 am 09:53 Mostly Sunny 48 8.9 27 -2.8 44 44 SSW 6 9 30.27 1025 10 16.0934 0 0
10:53 am 10:53 Mostly Cloudy 50 10 27 -2.8 41 41 SW 5 7 30.24 1024 10 16.0934 0 0
11:53 am 11:53 Partly Cloudy 52 11.1 28 -2.2 40 40 WSW 3 6 30.18 1022 10 16.0934 0 0
12:53 pm 12:53 Cloudy 54 12.2 29 -1.7 38 38 E 9 15 30.14 1021 10 16.0934 0 0
1:53 pm 13:53 Cloudy 54 12.2 29 -1.7 38 38 ESE 9 15 30.14 1021 10 16.0934 0 0
2:53 pm 14:53 Cloudy 54 12.2 30 -1.1 40 40 ESE 9 15 30.11 1020 10 16.0934 0 0
3:53 pm 15:53 Cloudy with Light Rain 53 11.7 33 0.6 47 47 SE 5 7 30.1 1019 10 16.0934 0 0.0254
4:53 pm 16:53 Cloudy with Light Rain 52 11.1 35 1.7 53 53 WSW 8 13 30.09 1019 10 16.0934 0 0.0254
5:53 pm 17:53 Cloudy with Light Rain 48 8.9 40 4.4 74 74 WSW 7 11 30.11 1020 10 16.0934 0.05 1.27
6:53 pm 18:53 Cloudy with Light Rain 47 8.3 41 5 80 80 WNW 8 13 30.13 1020 8 12.87472 0.06 1.524
7:53 pm 19:53 Cloudy with Light Rain 46 7.8 42 5.6 86 86 WSW 3 6 30.12 1020 5 8.0467 0.05 1.27
8:53 pm 20:53 Cloudy with Light Rain 46 7.8 43 6.1 89 89 Calm 30.12 1020 5 8.0467 0.11 2.794
9:53 pm 21:53 Cloudy 45 7.2 43 6.1 93 93 ESE 5 7 30.13 1020 10 16.0934 0.01 0.254
10:03 pm 22:03 Cloudy 45 7.2 43 6.1 93 93 SSE 6 9 30.09 1019 10 16.0934 0 0
10:12 pm 22:12 Cloudy with Light Rain 45 7.2 43 6.1 93 93 SSE 7 11 30.09 1019 10 16.0934 0 0.0254
10:53 pm 22:53 Cloudy with Light Rain 45 7.2 43 6.1 93 93 SW 5 7 30.13 1020 5 8.0467 0.03 0.762
11:28 pm 23:28 Cloudy with Light Rain 44 6.7 43 6.1 96 96 SSE 8 13 30.12 1020 6 9.65604 0.04 1.016
11:53 pm 23:53 Cloudy 45 7.2 44 6.7 97 97 SSW 6 9 30.1 1019 10 16.0934 0.04 1.016

Powered by AerisWeather